Location: Abundant Grace Fellowship
(35.0349°N, 90.0924°W)
Time: 22:48:48
(UTC+00:00)

CZ-2D R/B - Pass Details

Date: 18 January 2026
Orbit: 525 x 595 km, 98.0° (Epoch: 11 February)

Event Time Altitude Azimuth Distance (km) Brightness Sun altitude
Rises 00:52:45 0° 179° (S) 2,676 7.0 -20.0°
Reaches altitude 10° 00:54:55 10° 185° (S) 1,781 6.1 -20.4°
Maximum altitude 00:58:37 47° 260° (W) 706 4.2 -21.2°
Drops below altitude 10° 01:02:19 10° 335° (NNW) 1,774 6.1 -21.9°
Sets 01:04:28 0° 341° (NNW) 2,665 6.9 -22.3°
